Home > Weather > Prešov > Past weeks

Flag for Slovakia Past Weather in Prešov, Slovakia — Yesterday and Last 2 Weeks

Now
79 °F

Passing clouds.


Feels Like: 80 °F
Forecast: 59 / 87 °F
Wind: 3 mph from Northeast

Location: Kosice - Barca

Current Time: Jun 30, 2016 at 10:50:30 AM

Latest Report: Jun 30, 2016 at 10:30 AM


Visibility: N/A

Pressure: 30.04 "Hg

Humidity: 48%

Dew Point: 57 °F

Location of PrešovLocation

Past Weather in Prešov — Graph

°F

Prešov Temperature Yesterday

Maximum temperature yesterday: 81 °F (at 3:00 PM)
Minimum temperature yesterday: 55 °F (at 3:30 AM)
Average temperature yesterday: 70 °F

High & Low Weather Summary for the Past Weeks

 TemperatureHumidityPressure
High93 °F (Jun 24, 3:00 PM)100% (Jun 16, 1:30 AM)30.24 "Hg (Jun 16, 1:30 AM)
Low54 °F (Jun 19, 4:30 AM)28% (Jun 18, 5:30 PM)29.59 "Hg (Jun 15, 9:00 AM)
Average73 °F65%30.00 "Hg
* Reported Jun 15 9:00 AM — Jun 30 9:30 AM, Prešov, Weather by CustomWeather, © 2016

Note: Actual official high and low records may vary slightly from our data, if they occured in-between our weather recording intervals... More about our weather records

Advertising

Prešov Weather History for the Previous 24 Hours

Scroll right to see more
 ConditionsComfort  
Time TempWeatherWind HumidityBarometerVisibility
9:30 AM
Thu, Jun 30
77 °FPassing clouds.3 mph54%30.04 "HgN/A
9:00 AM75 °FSunny.2 mph57%30.04 "Hg10 mi
8:30 AM75 °FSunny.2 mph57%30.04 "Hg10 mi
8:00 AM72 °FSunny.2 mph69%30.04 "Hg10 mi
7:30 AM68 °FSunny.2 mph78%30.01 "Hg10 mi
7:00 AM66 °FSunny.2 mph73%30.01 "Hg10 mi
6:30 AM64 °FSunny.1 mph83%30.01 "Hg10 mi
6:00 AM63 °FSunny.2 mph83%30.01 "Hg10 mi
5:30 AM61 °FClear.3 mph83%30.01 "Hg10 mi
5:00 AM61 °FClear.1 mph83%30.01 "Hg10 mi
4:30 AM63 °FClear.3 mph77%30.01 "Hg10 mi
4:00 AM61 °FClear.5 mph83%30.01 "Hg10 mi
3:30 AM61 °FClear.2 mph83%30.01 "Hg10 mi
3:00 AM63 °FClear.2 mph77%30.01 "Hg10 mi
2:30 AM63 °FClear.1 mph77%30.01 "Hg10 mi
2:00 AM63 °FClear.2 mph77%30.01 "Hg10 mi
1:30 AM63 °FClear.2 mph83%30.01 "Hg10 mi
1:00 AM63 °FClear.3 mph83%30.01 "Hg10 mi
12:30 AM64 °FClear.2 mph78%30.01 "Hg10 mi
12:00 AM64 °FClear.3 mph78%30.01 "Hg10 mi
11:30 PM
Wed, Jun 29
66 °FClear.2 mph78%30.01 "Hg10 mi
11:00 PM66 °FClear.1 mph78%30.01 "Hg10 mi
10:30 PM68 °FPassing clouds.5 mph73%29.98 "HgN/A
10:00 PM66 °FClear.3 mph78%29.98 "Hg10 mi
9:30 PM72 °FSunny.6 mph65%29.98 "Hg10 mi
9:00 PM72 °FSunny.5 mph69%29.98 "Hg10 mi
8:30 PM73 °FSunny.3 mph69%29.98 "Hg10 mi
8:00 PM77 °FSunny.5 mph51%29.98 "Hg10 mi
7:30 PM79 °FSunny.5 mph48%29.95 "Hg10 mi
7:00 PM79 °FSunny.3 mph45%29.95 "Hg10 mi
6:30 PM81 °FPassing clouds.5 mph42%29.95 "HgN/A
6:00 PM81 °FPassing clouds.3 mph39%29.95 "HgN/A
5:30 PM81 °FSunny.2 mph39%29.95 "Hg10 mi
5:00 PM81 °FSunny.2 mph39%29.95 "Hg10 mi
4:30 PM81 °FSunny.2 mph39%29.98 "Hg10 mi
4:00 PM81 °FPassing clouds.3 mph39%29.98 "HgN/A
3:30 PM81 °FSunny.2 mph39%29.98 "Hg10 mi
3:00 PM81 °FPassing clouds.3 mph37%29.98 "HgN/A
2:30 PM79 °FPassing clouds.5 mph42%29.98 "HgN/A
2:00 PM79 °FSunny.3 mph39%29.98 "Hg10 mi
1:30 PM79 °FSunny.5 mph42%29.98 "Hg10 mi
1:00 PM79 °FPassing clouds.6 mph39%30.01 "HgN/A
12:30 PM77 °FPassing clouds.7 mph42%30.01 "HgN/A
12:00 PM75 °FPassing clouds.9 mph47%30.01 "HgN/A
11:30 AM75 °FPassing clouds.8 mph44%30.01 "HgN/A
11:00 AM75 °FPassing clouds.9 mph47%30.01 "HgN/A
10:30 AM73 °FPassing clouds.10 mph47%30.01 "HgN/A
10:00 AM72 °FPassing clouds.9 mph50%30.01 "HgN/A
Weather by CustomWeather, © 2016

See weather overviewHow to use our weather pages